Weather Roundup
Issued by NWS Springfield, MO

Home | Current Version | Previous Version | Text Only | Print | Product List | Glossary On
Versions: 1 2 3 4 5 6 7 8 9 10 11 12 13 14 15 16 17 18 19 20 21 22 23 24 25 26 27 28 29 30 31 32 33 34 35 36 37 38 39 40 41 42 43 44 45 46 47 48 49 50
414
NZUS99 KSGF 232207
HRRSGF

HOURLY WEATHER
NATIONAL WEATHER SERVICE SPRINGFIELD MO
500 PM CDT MON MAY 23 2016

......SGF CWA......

CITY           SKY/WX    TMP DP  RH WIND       PRES   REMARKS
SPRINGFIELD    HVY RAIN  70  61  73 W10       29.95R
JOPLIN         LGT RAIN  67  64  90 W8        29.97R
WEST PLAINS    MOSUNNY   78  53  41 E10       29.96S
ROLLA          MOSUNNY   76  57  51 SE8       29.92F
OSAGE BEACH      N/A    N/A N/A N/A MISG      29.93R
BRANSON        LGT RAIN  68  63  83 S5        29.97R

......SURROUNDING SGF CWA......

CITY           SKY/WX    TMP DP  RH WIND       PRES   REMARKS
CHANUTE        CLOUDY    68  62  81 SE10      29.81F
PARSONS        CLOUDY    70  63  78 MISG      29.83F
COFFEYVILLE    CLOUDY    70  63  78 SE15      29.82F
EMPORIA        PTSUNNY   70  60  70 E6        29.81F
GROVE OK       LGT RAIN  68  64  88 E3        29.95F
ROGERS AR      HVY RAIN  63  62  97 NW9       29.99R FOG
SILOAM SPRINGS CLOUDY    63  55  77 N12       29.99R
HARRISON AR    CLOUDY    71  59  65 S8        29.97R
NEAR YELLVILLE CLOUDY   N/A N/A N/A CALM      29.90S

......KANSAS AND MISSOURI......

CITY           SKY/WX    TMP DP  RH WIND       PRES   REMARKS
KANSAS CTY INT CLOUDY    68  63  84 NW6       29.86R
DOWNTOWN KC    CLOUDY    69  61  75 W12G28    29.83F
COLUMBIA       MOSUNNY   77  55  46 S9        29.92S
SEDALIA        CLOUDY    78  62  57 SW6       29.92S
ST JOSEPH      PTSUNNY   68  64  87 SE12      29.85F
ST LOUIS       CLOUDY    83  47  28 S14G20    29.94F
SPIRIT OF STL  CLOUDY    81  51  35 SW9       29.93S
KIRKSVILLE     CLOUDY    78  55  44 S7        29.91S
WICHITA        PTSUNNY   73  63  70 SE22G36   29.79F
TOPEKA         CLOUDY    71  63  75 E7        29.82F
OLATHE         CLOUDY    65  62  90 SE8       29.82F

......TENNESSEE......

CITY           SKY/WX    TMP DP  RH WIND       PRES   REMARKS
MEMPHIS        PTSUNNY   83  51  33 SE6       29.95F
NASHVILLE      MOSUNNY   84  49  29 N9        29.96S

......ARKANSAS.......

CITY           SKY/WX    TMP DP  RH WIND       PRES   REMARKS
FAYETTEVILLE   LGT RAIN  67  64  90 SW8       29.96R
FT SMITH       CLOUDY    77  60  55 NE9       29.93R
LITTLE ROCK    CLOUDY    80  60  50 S6        29.91S

......OKLAHOMA.......

CITY           SKY/WX    TMP DP  RH WIND       PRES   REMARKS
TULSA          LGT RAIN  70  67  90 E9        29.90F
PONCA CITY     CLOUDY    69  63  81 SE17G29   29.81F
MCALESTER      CLOUDY    75  64  68 S7        29.90R
OKLAHOMA CITY  LGT RAIN  72  69  90 SE13      29.84F

......IOWA............

CITY           SKY/WX    TMP DP  RH WIND       PRES   REMARKS
DES MOINES     CLOUDY    73  59  61 S9        29.86S
QUAD CITIES    SUNNY     84  44  24 S16G23    29.88F

......ILLINOIS........

CITY           SKY/WX    TMP DP  RH WIND       PRES   REMARKS
QUINCY         CLOUDY    80  47  31 S13       29.92S
CHICAGO        MOSUNNY   81  41  24 S8        29.93S




USA.gov is the U.S. government's official web portal to all federal, state and local government web resources and services.